Change the Weather History Date:

Wednesday, January 22, 2014

  Actual Average Record
Temperature  
Mean Temperature 42 °F -  
Max Temperature 50 °F 46 °F 59 °F (2005)
Min Temperature 35 °F 35 °F 21 °F (2008)
Degree Days  
Heating Degree Days 22    
Moisture  
Dew Point 38 °F    
Average Humidity 90    
Maximum Humidity 100    
Minimum Humidity 76    
Precipitation  
Precipitation 0.00 in - - ()
Sea Level Pressure  
Sea Level Pressure 30.35 in    
Wind  
Wind Speed 3 mph (NNE)    
Max Wind Speed 13 mph    
Max Gust Speed 16 mph    
Visibility 7 miles    
Events      
Averages and records for this station are not official NWS values.
T = Trace of Precipitation, MM = Missing Value Source: NWS Daily Summary

Daily Weather History Graph

Daily Weather History Graph

Search for Another Location

Airport or City:

Trip Planner

Search our weather history database for the weather conditions in past years. The results will help you decide how hot, cold, wet, or windy it might be!

Date:

Astronomy

Jan. 22, 2014 Rise Set
Actual Time 7:41 AM PST 5:08 PM PST
Civil Twilight 7:09 AM PST 5:40 PM PST
Nautical Twilight 6:34 AM PST 6:16 PM PST
Astronomical Twilight 5:59 AM PST 6:50 PM PST
Moon No Moon Rise 10:29 AM PST (1/22)
Length of Visible Light 10h 30m
Length of Day
9h 27m
Waning Gibbous, 64% of the Moon is Illuminated
Jan 22
Waning Gibbous
Jan 23
Last Quarter
Jan 30
New
Feb 6
First Quarter
Feb 14
Full

Hourly Weather History & Observations

Time (PST) Temp. Windchill Dew Point Humidity Pressure Visibility Wind Dir Wind Speed Gust Speed Precip Events Conditions
12:15 AM 35.6 °F 31.7 °F 33.8 °F 93% 30.38 in 5.0 mi South 4.6 mph - N/A   Overcast
12:35 AM 35.6 °F 32.8 °F 33.8 °F 93% 30.39 in 10.0 mi East 3.5 mph - N/A   Overcast
12:55 AM 35.6 °F - 33.8 °F 93% 30.38 in 7.0 mi Calm Calm - N/A   Overcast
1:15 AM 35.6 °F - 33.8 °F 93% 30.38 in 6.0 mi Calm Calm - N/A   Overcast
1:35 AM 35.6 °F - 33.8 °F 93% 30.38 in 5.0 mi Calm Calm - N/A   Overcast
1:55 AM 35.6 °F - 33.8 °F 93% 30.38 in 2.5 mi Calm Calm - N/A   Overcast
2:15 AM 35.6 °F - 33.8 °F 93% 30.38 in 4.0 mi Calm Calm - N/A   Overcast
2:35 AM 35.6 °F - 33.8 °F 93% 30.38 in 4.0 mi Calm Calm - N/A   Overcast
2:55 AM 35.6 °F - 33.8 °F 93% 30.39 in 5.0 mi Calm Calm - N/A   Overcast
3:15 AM 35.6 °F - 33.8 °F 93% 30.39 in 4.0 mi Calm Calm - N/A   Overcast
3:35 AM 35.6 °F 32.8 °F 35.6 °F 100% 30.39 in 5.0 mi West 3.5 mph - N/A   Overcast
3:55 AM 35.6 °F - 35.6 °F 100% 30.39 in 6.0 mi Calm Calm - N/A   Overcast
4:15 AM 35.6 °F - 33.8 °F 93% 30.39 in 7.0 mi Calm Calm - N/A   Overcast
4:35 AM 35.6 °F - 33.8 °F 93% 30.40 in 6.0 mi Calm Calm - N/A   Overcast
4:55 AM 35.6 °F - 33.8 °F 93% 30.40 in 6.0 mi Calm Calm - N/A   Overcast
5:15 AM 35.6 °F - 33.8 °F 93% 30.39 in 8.0 mi Calm Calm - N/A   Overcast
5:35 AM 35.6 °F - 35.6 °F 100% 30.39 in 5.0 mi Calm Calm - N/A   Overcast
5:55 AM 35.6 °F - 35.6 °F 100% 30.39 in 5.0 mi Calm Calm - N/A   Overcast
6:15 AM 35.6 °F - 33.8 °F 93% 30.40 in 6.0 mi Calm Calm - N/A   Overcast
6:35 AM 35.6 °F - 35.6 °F 100% 30.40 in 7.0 mi Calm Calm - N/A   Overcast
6:55 AM 35.6 °F - 33.8 °F 93% 30.40 in 5.0 mi Calm Calm - N/A   Overcast
7:15 AM 35.6 °F - 35.6 °F 100% 30.39 in 5.0 mi Calm Calm - N/A   Overcast
7:35 AM 37.4 °F - 35.6 °F 93% 30.40 in 5.0 mi Calm Calm - N/A   Overcast
7:55 AM 37.4 °F - 35.6 °F 93% 30.40 in 5.0 mi Calm Calm - N/A   Overcast
8:15 AM 37.4 °F - 35.6 °F 93% 30.39 in 4.0 mi Calm Calm - N/A   Overcast
8:35 AM 37.4 °F 34.9 °F 35.6 °F 93% 30.39 in 4.0 mi ENE 3.5 mph - N/A   Overcast
8:55 AM 37.4 °F - 35.6 °F 93% 30.39 in 4.0 mi Calm Calm - N/A   Overcast
9:15 AM 37.4 °F - 35.6 °F 93% 30.38 in 4.0 mi Calm Calm - N/A   Overcast
9:35 AM 37.4 °F - 35.6 °F 93% 30.38 in 3.0 mi Calm Calm - N/A   Overcast
9:55 AM 37.4 °F - 37.4 °F 100% 30.38 in 3.0 mi Calm Calm - N/A   Overcast
10:15 AM 37.4 °F 34.9 °F 37.4 °F 100% 30.38 in 2.5 mi North 3.5 mph - N/A   Overcast
10:35 AM 39.2 °F - 39.2 °F 100% 30.38 in 3.0 mi Calm Calm - N/A   Overcast
10:55 AM 39.2 °F 37.0 °F 37.4 °F 93% 30.39 in 3.0 mi NNE 3.5 mph - N/A   Overcast
11:15 AM 39.2 °F 35.9 °F 37.4 °F 93% 30.38 in 2.0 mi NNE 4.6 mph - N/A   Overcast
11:35 AM 41.0 °F 39.0 °F 39.2 °F 93% 30.38 in 3.0 mi NE 3.5 mph - N/A   Overcast
11:55 AM 39.2 °F - 39.2 °F 100% 30.38 in 5.0 mi Calm Calm - N/A   Overcast
12:15 PM 41.0 °F - 39.2 °F 93% 30.37 in 5.0 mi Calm Calm - N/A   Overcast
12:35 PM 42.8 °F - 39.2 °F 87% 30.37 in 5.0 mi Calm Calm - N/A   Overcast
12:55 PM 42.8 °F - 41.0 °F 93% 30.36 in 6.0 mi Calm Calm - N/A   Overcast
1:15 PM 42.8 °F - 42.8 °F 100% 30.36 in 7.0 mi Calm Calm - N/A   Overcast
1:35 PM 44.6 °F 43.1 °F 41.0 °F 87% 30.35 in 10.0 mi North 3.5 mph - N/A   Overcast
1:55 PM 44.6 °F - 42.8 °F 93% 30.34 in 10.0 mi Calm Calm - N/A   Overcast
2:15 PM 46.4 °F 45.2 °F 42.8 °F 87% 30.34 in 10.0 mi North 3.5 mph - N/A   Scattered Clouds
2:35 PM 48.2 °F - 42.8 °F 82% 30.34 in 10.0 mi North 3.5 mph - N/A   Scattered Clouds
2:55 PM 50.0 °F - 42.8 °F 76% 30.33 in 10.0 mi NNE 10.4 mph - N/A   Partly Cloudy
3:15 PM 48.2 °F - 42.8 °F 82% 30.33 in 10.0 mi North 12.7 mph - N/A   Clear
3:35 PM 48.2 °F - 42.8 °F 82% 30.32 in 10.0 mi North 9.2 mph - N/A   Partly Cloudy
3:55 PM 48.2 °F - 42.8 °F 82% 30.32 in 10.0 mi NNE 6.9 mph - N/A   Scattered Clouds
4:15 PM 46.4 °F 42.4 °F 42.8 °F 87% 30.32 in 10.0 mi NNE 8.1 mph - N/A   Mostly Cloudy
4:35 PM 46.4 °F 41.9 °F 42.8 °F 87% 30.31 in 10.0 mi NNE 9.2 mph - N/A   Overcast
4:55 PM 46.4 °F 42.9 °F 42.8 °F 87% 30.31 in 10.0 mi NNE 6.9 mph - N/A   Overcast
5:15 PM 46.4 °F 43.5 °F 42.8 °F 87% 30.31 in 10.0 mi NE 5.8 mph - N/A   Overcast
5:35 PM 46.4 °F 42.9 °F 42.8 °F 87% 30.31 in 10.0 mi NNE 6.9 mph - N/A   Overcast
5:55 PM 46.4 °F 42.9 °F 42.8 °F 87% 30.31 in 10.0 mi NNE 6.9 mph - N/A   Overcast
6:15 PM 46.4 °F 43.5 °F 41.0 °F 81% 30.30 in 10.0 mi NE 5.8 mph - N/A   Overcast
6:35 PM 46.4 °F 44.3 °F 42.8 °F 87% 30.31 in 10.0 mi NE 4.6 mph - N/A   Overcast
6:55 PM 44.6 °F 42.2 °F 42.8 °F 93% 30.30 in 10.0 mi NNE 4.6 mph - N/A   Overcast
7:15 PM 46.4 °F 43.5 °F 41.0 °F 81% 30.31 in 10.0 mi North 5.8 mph - N/A   Overcast
7:35 PM 44.6 °F 40.2 °F 41.0 °F 87% 30.31 in 10.0 mi NNE 8.1 mph - N/A   Overcast
7:55 PM 44.6 °F 40.2 °F 41.0 °F 87% 30.31 in 10.0 mi NNE 8.1 mph - N/A   Overcast
8:15 PM 44.6 °F 39.2 °F 39.2 °F 81% 30.30 in 10.0 mi NNE 10.4 mph - N/A   Overcast
8:35 PM 44.6 °F 40.2 °F 39.2 °F 81% 30.30 in 10.0 mi North 8.1 mph - N/A   Overcast
8:55 PM 44.6 °F 38.8 °F 39.2 °F 81% 30.30 in 10.0 mi NNE 11.5 mph - N/A   Overcast
9:15 PM 44.6 °F 39.7 °F 39.2 °F 81% 30.30 in 10.0 mi NNE 9.2 mph - N/A   Overcast
9:35 PM 44.6 °F 39.2 °F 39.2 °F 81% 30.30 in 10.0 mi NNE 10.4 mph 16.1 mph N/A   Overcast
9:55 PM 44.6 °F 39.2 °F 39.2 °F 81% 30.31 in 10.0 mi NNE 10.4 mph - N/A   Overcast
10:15 PM 44.6 °F 40.2 °F 39.2 °F 81% 30.31 in 10.0 mi NNE 8.1 mph - N/A   Overcast
10:35 PM 44.6 °F 39.2 °F 39.2 °F 81% 30.30 in 10.0 mi NNE 10.4 mph - N/A   Overcast
10:55 PM 41.0 °F 37.1 °F 37.4 °F 87% 30.30 in 10.0 mi NNE 5.8 mph - N/A   Scattered Clouds
11:15 PM 39.2 °F 33.0 °F 37.4 °F 93% 30.31 in 10.0 mi NNE 9.2 mph - N/A   Mostly Cloudy
11:35 PM 42.8 °F 36.2 °F 37.4 °F 81% 30.31 in 10.0 mi NE 12.7 mph - N/A   Mostly Cloudy
11:55 PM 39.2 °F 33.6 °F 35.6 °F 87% 30.31 in 10.0 mi NE 8.1 mph - N/A   Partly Cloudy